Date String (YYYY-MM-DD hh:mm:ss) UTC,Instrument flags,absolute air pressure of the measurement (hPa),sample flow rate (lpm),inlet stack bypass flow (lpm),air temperature of the measurement (°C),ambient temperature measured by the external sensor (°C),aerosol sample conditioner tube jacket temperature (°C),OPC LED temperature (°C),internal box temperature (°C),relative humidity of the measurement (%),span deviation,mass concentration of particles derived from Lorenz-Mie calculation of OPC scattering (μg/m³),mass concentration of particles derived from Lorenz-Mie calculation of OPC scattering (μg/m³),mass concentration of particles derived from Lorenz-Mie calculation of OPC scattering (μg/m³)
DateTimeUTC,F1_M11,P_M11,Q1_M11,Q2_M11,T1_M11,T2_M11,T3_M11,T4_M11,T5_M11,U1_M11,ZSPAN_M11,X2_M11,X0_M11,X1_M11
2024-04-01 04:00:00,SystemResetWarning,0816.9,5.00,000.00,022.3,021.5,000.0,030.8,024.1,12.0,0000.0,0000.67,0001.32,0000.38
2024-04-01 04:01:00,SystemResetWarning,0816.9,5.00,000.00,022.3,021.5,000.0,030.8,024.1,12.2,0000.0,0000.65,0001.19,0000.38
2024-04-01 04:02:00,SystemResetWarning,0816.9,5.00,000.00,022.3,021.5,000.0,030.8,024.1,12.2,0000.0,0000.62,0001.06,0000.39
2024-04-01 04:03:00,SystemResetWarning,0816.9,5.00,000.00,022.3,021.5,000.0,030.8,024.1,12.2,0000.0,0000.61,0001.00,0000.39
2024-04-01 04:04:00,SystemResetWarning,0816.9,5.00,000.00,022.3,021.5,000.0,030.8,024.1,12.3,0000.0,0000.61,0001.00,0000.39
2024-04-01 04:05:00,SystemResetWarning,0816.9,5.00,000.00,022.3,021.5,000.0,030.8,024.1,12.4,0000.0,0000.59,0000.94,0000.38
2024-04-01 04:06:00,SystemResetWarning,0816.9,5.00,000.00,022.3,021.5,000.0,030.8,024.1,12.3,0000.0,0000.62,0001.00,0000.39
2024-04-01 04:07:00,SystemResetWarning,0816.9,5.01,000.00,022.3,021.5,000.0,030.8,024.1,12.4,0000.0,0000.69,0001.13,0000.45
2024-04-01 04:08:00,SystemResetWarning,0816.9,5.01,000.00,022.3,021.5,000.0,030.8,024.1,12.4,0000.0,0000.74,0001.26,0000.50
2024-04-01 04:09:00,SystemResetWarning,0816.9,5.00,000.00,022.3,021.5,000.0,030.8,024.1,12.5,0000.0,0000.73,0001.29,0000.48
2024-04-01 04:10:00,SystemResetWarning,0816.9,4.99,000.00,022.3,021.5,000.0,030.8,024.1,12.5,0000.0,0000.75,0001.97,0000.47
2024-04-01 04:11:00,SystemResetWarning,0816.9,4.99,000.00,022.3,021.5,000.0,030.8,024.1,12.5,0000.0,0000.77,0002.85,0000.47
2024-04-01 04:12:00,SystemResetWarning,0816.9,5.00,000.00,022.3,021.5,000.0,030.8,024.1,12.5,0000.0,0000.81,0002.94,0000.47
2024-04-01 04:13:00,SystemResetWarning,0816.9,5.02,000.00,022.3,021.5,000.0,030.8,024.1,12.5,0000.0,0000.81,0002.96,0000.46
2024-04-01 04:14:00,SystemResetWarning,0817.0,5.01,000.00,022.3,021.5,000.0,030.8,024.1,12.7,0000.0,0000.80,0002.94,0000.46
2024-04-01 04:15:00,SystemResetWarning,0817.1,4.99,000.00,022.3,021.5,000.0,030.8,024.1,12.8,0000.0,0000.81,0002.94,0000.46
2024-04-01 04:16:00,SystemResetWarning,0817.1,4.99,000.00,022.3,021.5,000.0,030.8,024.1,12.9,0000.0,0000.81,0002.97,0000.47
2024-04-01 04:17:00,SystemResetWarning,0817.1,4.99,000.00,022.3,021.5,000.0,030.8,024.1,13.5,0000.0,0000.80,0003.06,0000.47
2024-04-01 04:18:00,SystemResetWarning,0817.2,5.00,000.00,022.3,021.5,000.0,030.8,024.1,14.0,0000.0,0000.73,0003.88,0000.42
2024-04-01 04:19:00,SystemResetWarning,0817.2,5.00,000.00,022.3,021.5,000.0,030.8,024.1,14.4,0000.0,0000.65,0003.66,0000.35
2024-04-01 04:20:00,SystemResetWarning,0817.3,5.00,000.00,022.3,021.5,000.0,030.8,024.1,14.8,0000.0,0000.60,0003.69,0000.34
2024-04-01 04:21:00,SystemResetWarning,0817.3,5.00,000.00,022.3,021.5,000.0,030.8,024.1,14.9,0000.0,0000.59,0004.20,0000.33
2024-04-01 04:22:00,SystemResetWarning,0817.4,4.99,000.00,022.3,021.5,000.0,030.8,024.1,15.0,0000.0,0000.58,0003.09,0000.33
2024-04-01 04:23:00,SystemResetWarning,0817.4,5.00,000.00,022.3,021.5,000.0,030.8,024.1,15.2,0000.0,0000.56,0003.11,0000.33
2024-04-01 04:24:00,SystemResetWarning,0817.4,5.00,000.00,022.3,021.5,000.0,030.8,024.1,15.2,0000.0,0000.54,0003.17,0000.32
2024-04-01 04:25:00,SystemResetWarning,0817.4,5.00,000.00,022.3,021.5,000.0,030.8,024.1,15.3,0000.0,0000.55,0003.66,0000.33
2024-04-01 04:26:00,SystemResetWarning,0817.4,5.00,000.00,022.3,021.5,000.0,030.8,024.1,15.3,0000.0,0000.54,0004.00,0000.32
2024-04-01 04:27:00,SystemResetWarning,0817.4,5.00,000.00,022.3,021.5,000.0,030.8,024.1,14.8,0000.0,0000.52,0003.99,0000.31
2024-04-01 04:28:00,SystemResetWarning,0817.5,5.00,000.00,022.3,021.5,000.0,030.8,024.1,15.1,0000.0,0000.50,0003.80,0000.31
2024-04-01 04:29:00,SystemResetWarning,0817.5,5.00,000.00,022.3,021.5,000.0,030.8,024.1,14.9,0000.0,0000.50,0002.85,0000.32
2024-04-01 04:30:00,SystemResetWarning,0817.5,5.00,000.00,022.3,021.5,000.0,030.8,024.1,14.6,0000.0,0000.51,0002.85,0000.32
2024-04-01 04:31:00,SystemResetWarning,0817.4,5.00,000.00,022.3,021.5,000.0,030.8,024.1,14.6,0000.0,0000.51,0002.71,0000.33
2024-04-01 04:32:00,SystemResetWarning,0817.4,5.00,000.00,022.3,021.5,000.0,030.8,024.1,14.5,0000.0,0000.49,0001.77,0000.34
2024-04-01 04:33:00,SystemResetWarning,0817.3,4.99,000.00,022.3,021.5,000.0,030.8,024.1,14.4,0000.0,0000.49,0001.75,0000.35
2024-04-01 04:34:00,SystemResetWarning,0817.3,4.99,000.00,022.3,021.5,000.0,030.8,024.1,14.4,0000.0,0000.52,0001.85,0000.36
2024-04-01 04:35:00,SystemResetWarning,0817.3,5.00,000.00,022.3,021.6,000.0,030.8,024.1,14.5,0000.0,0000.55,0001.82,0000.38
2024-04-01 04:36:00,SystemResetWarning,0817.4,5.01,000.00,022.3,021.6,000.0,030.8,024.1,14.6,0000.0,0000.57,0001.38,0000.39
2024-04-01 04:37:00,SystemResetWarning,0817.4,5.01,000.00,022.3,021.6,000.0,030.8,024.1,14.5,0000.0,0000.59,0001.10,0000.40
2024-04-01 04:38:00,SystemResetWarning,0817.3,5.01,000.00,022.3,021.6,000.0,030.8,024.1,14.1,0000.0,0000.62,0001.17,0000.42
2024-04-01 04:39:00,SystemResetWarning,0817.4,4.98,000.00,022.3,021.6,000.0,030.8,024.1,13.7,0000.0,0000.62,0001.19,0000.41
2024-04-01 04:40:00,SystemResetWarning,0817.3,4.99,000.00,022.3,021.6,000.0,030.8,024.1,13.3,0000.0,0000.61,0001.18,0000.40
2024-04-01 04:41:00,SystemResetWarning,0817.3,5.00,000.00,022.3,021.6,000.0,030.8,024.1,13.2,0000.0,0000.60,0001.19,0000.39
2024-04-01 04:42:00,SystemResetWarning,0817.2,5.01,000.00,022.3,021.6,000.0,030.8,024.1,13.1,0000.0,0000.63,0001.31,0000.39
2024-04-01 04:43:00,SystemResetWarning,0817.2,5.00,000.00,022.3,021.6,000.0,030.8,024.1,12.8,0000.0,0000.66,0001.38,0000.38
2024-04-01 04:44:00,SystemResetWarning,0817.2,5.00,000.00,022.3,021.6,000.0,030.8,024.1,12.7,0000.0,0000.65,0001.38,0000.38
2024-04-01 04:45:00,SystemResetWarning,0817.2,5.00,000.00,022.3,021.6,000.0,030.8,024.1,12.9,0000.0,0000.61,0001.17,0000.36
2024-04-01 04:46:00,SystemResetWarning,0817.2,5.00,000.00,022.3,021.6,000.0,030.8,024.1,13.3,0000.0,0000.57,0001.07,0000.35
2024-04-01 04:47:00,SystemResetWarning,0817.2,5.00,000.00,022.3,021.6,000.0,030.8,024.1,13.6,0000.0,0000.52,0000.96,0000.33
2024-04-01 04:48:00,SystemResetWarning,0817.1,5.00,000.00,022.3,021.6,000.0,030.8,024.1,13.6,0000.0,0000.49,0000.90,0000.32
2024-04-01 04:49:00,SystemResetWarning,0817.1,5.00,000.00,022.3,021.6,000.0,030.8,024.1,13.8,0000.0,0000.45,0000.81,0000.30
2024-04-01 04:50:00,SystemResetWarning,0817.2,5.00,000.00,022.3,021.6,000.0,030.8,024.1,14.6,0000.0,0000.46,0000.93,0000.30
2024-04-01 04:51:00,SystemResetWarning,0817.2,5.00,000.00,022.3,021.6,000.0,030.8,024.2,14.9,0000.0,0000.47,0000.95,0000.30
2024-04-01 04:52:00,SystemResetWarning,0817.2,5.00,000.00,022.3,021.6,000.0,030.8,024.2,14.6,0000.0,0000.47,0000.95,0000.31
2024-04-01 04:53:00,SystemResetWarning,0817.2,5.00,000.00,022.3,021.6,000.0,030.8,024.2,14.6,0000.0,0000.46,0000.87,0000.31
2024-04-01 04:54:00,SystemResetWarning,0817.2,5.00,000.00,022.3,021.6,000.0,030.8,024.1,15.3,0000.0,0000.46,0000.93,0000.31
2024-04-01 04:55:00,SystemResetWarning,0817.2,5.00,000.00,022.3,021.6,000.0,030.8,024.1,15.6,0000.0,0000.47,0001.84,0000.31
2024-04-01 04:56:00,SystemResetWarning,0817.1,5.00,000.00,022.3,021.6,000.0,030.8,024.1,15.9,0000.0,0000.52,0001.97,0000.31
2024-04-01 04:57:00,SystemResetWarning,0817.1,5.00,000.00,022.3,021.6,000.0,030.8,024.1,16.1,0000.0,0000.52,0003.23,0000.31
2024-04-01 04:58:00,SystemResetWarning,0817.1,5.00,000.00,022.3,021.6,000.0,030.8,024.2,16.3,0000.0,0000.53,0003.33,0000.30
2024-04-01 04:59:00,SystemResetWarning,0817.1,5.00,000.00,022.3,021.6,000.0,030.8,024.2,16.5,0000.0,0000.52,0003.29,0000.29
